WZZ41MK EPGD-EKCH

Flight info

Callsign WZZ41MK
Flight time 0h 41m
Altitude 30000
Route DEXIR Y100 MALOX L621 LUSID DCT ROE M743 TIDVU
Aircraft A321/M-SDE3FGHIRWY/LB1

Departure

Time 2026-04-22 07:28
Airport Gdańsk Lech Wałęsa Airport (EPGD)

Arrival

Time 2026-04-22 08:09
Airport Copenhagen Kastrup Airport (EKCH)
Time Latitude Longitude Altitude Speed Heading
2026-04-22 06:45 54.37168 18.49009 504 ft 0 kts 293°
2026-04-22 06:45 54.38066 18.46436 504 ft 0 kts 23°
2026-04-22 07:19 54.38063 18.46434 504 ft 3 kts 23°
2026-04-22 07:19 54.38039 18.46416 504 ft 4 kts 23°
2026-04-22 07:19 54.38018 18.46401 504 ft 4 kts 26°
2026-04-22 07:19 54.38001 18.46376 504 ft 4 kts 84°
2026-04-22 07:20 54.38007 18.46335 504 ft 4 kts 115°
2026-04-22 07:20 54.38010 18.46322 504 ft 0 kts 113°
2026-04-22 07:21 54.38010 18.46323 503 ft 0 kts 113°
2026-04-22 07:23 54.38007 18.46337 503 ft 3 kts 110°
2026-04-22 07:24 54.37995 18.46393 503 ft 7 kts 110°
2026-04-22 07:24 54.37972 18.46490 503 ft 11 kts 113°
2026-04-22 07:24 54.37937 18.46628 503 ft 15 kts 114°
2026-04-22 07:24 54.37893 18.46809 503 ft 18 kts 113°
2026-04-22 07:25 54.37838 18.47029 503 ft 22 kts 113°
2026-04-22 07:25 54.37775 18.47283 503 ft 22 kts 112°
2026-04-22 07:25 54.37716 18.47522 503 ft 24 kts 113°
2026-04-22 07:25 54.37647 18.47802 503 ft 27 kts 113°
2026-04-22 07:26 54.37571 18.48108 503 ft 30 kts 112°
2026-04-22 07:26 54.37489 18.48438 503 ft 25 kts 113°
2026-04-22 07:26 54.37419 18.48720 503 ft 27 kts 112°
2026-04-22 07:26 54.37343 18.49032 503 ft 28 kts 112°
2026-04-22 07:27 54.37292 18.49148 503 ft 9 kts 173°
2026-04-22 07:27 54.37224 18.49109 503 ft 12 kts 203°
2026-04-22 07:27 54.37164 18.49044 503 ft 4 kts 268°
2026-04-22 07:27 54.37188 18.48928 504 ft 25 kts 293°
2026-04-22 07:28 54.37706 18.46842 532 ft 150 kts 294°
2026-04-22 07:28 54.38095 18.45303 1274 ft 134 kts 294°
2026-04-22 07:28 54.38465 18.43784 1770 ft 145 kts 293°
2026-04-22 07:29 54.38862 18.42132 2329 ft 151 kts 295°
2026-04-22 07:29 54.39278 18.40453 2874 ft 155 kts 297°
2026-04-22 07:29 54.39703 18.38732 3389 ft 158 kts 297°
2026-04-22 07:29 54.40140 18.36953 3841 ft 168 kts 297°
2026-04-22 07:30 54.40611 18.35033 4221 ft 182 kts 297°
2026-04-22 07:30 54.41126 18.32952 4633 ft 196 kts 297°
2026-04-22 07:30 54.41680 18.30706 5006 ft 215 kts 297°
2026-04-22 07:30 54.42276 18.28255 5496 ft 228 kts 296°
2026-04-22 07:31 54.42893 18.25709 6177 ft 233 kts 296°
2026-04-22 07:31 54.43331 18.22993 6864 ft 242 kts 277°
2026-04-22 07:31 54.42991 18.20128 7530 ft 253 kts 244°
2026-04-22 07:31 54.41780 18.17917 8201 ft 260 kts 210°
2026-04-22 07:32 54.40072 18.16884 8876 ft 262 kts 193°
2026-04-22 07:32 54.38282 18.16105 9466 ft 271 kts 197°
2026-04-22 07:32 54.36481 18.14875 9829 ft 288 kts 209°
2026-04-22 07:32 54.34910 18.12641 10164 ft 301 kts 236°
2026-04-22 07:33 54.33998 18.09416 10739 ft 302 kts 254°
2026-04-22 07:33 54.33376 18.05983 11443 ft 304 kts 257°
2026-04-22 07:33 54.32754 18.02459 11928 ft 315 kts 256°
2026-04-22 07:33 54.32057 17.98836 12188 ft 334 kts 254°
2026-04-22 07:34 54.31254 17.94975 12419 ft 353 kts 253°
2026-04-22 07:34 54.30390 17.90932 12663 ft 370 kts 253°
2026-04-22 07:34 54.29497 17.86739 13084 ft 379 kts 253°
2026-04-22 07:34 54.28636 17.82470 13686 ft 380 kts 256°
2026-04-22 07:35 54.27896 17.78103 14242 ft 383 kts 257°
2026-04-22 07:35 54.27184 17.73694 14781 ft 387 kts 258°
2026-04-22 07:35 54.26469 17.69240 15315 ft 390 kts 258°
2026-04-22 07:35 54.25737 17.64748 15836 ft 394 kts 257°
2026-04-22 07:36 54.24982 17.60229 16351 ft 397 kts 257°
2026-04-22 07:36 54.24217 17.55672 16849 ft 400 kts 257°
2026-04-22 07:36 54.23446 17.51076 17327 ft 404 kts 257°
2026-04-22 07:36 54.22705 17.46434 17800 ft 406 kts 261°
2026-04-22 07:37 54.22458 17.41664 18262 ft 402 kts 275°
2026-04-22 07:37 54.22584 17.36889 18744 ft 403 kts 278°
2026-04-22 07:37 54.22814 17.32095 19194 ft 406 kts 279°
2026-04-22 07:37 54.23060 17.27274 19638 ft 409 kts 279°
2026-04-22 07:38 54.23274 17.22412 20065 ft 412 kts 278°
2026-04-22 07:38 54.23449 17.17503 20492 ft 415 kts 277°
2026-04-22 07:38 54.23600 17.12562 20920 ft 418 kts 277°
2026-04-22 07:38 54.23753 17.07590 21327 ft 420 kts 277°
2026-04-22 07:39 54.23919 17.02587 21722 ft 422 kts 277°
2026-04-22 07:39 54.24093 16.97562 22110 ft 425 kts 278°
2026-04-22 07:39 54.24319 16.92516 22468 ft 425 kts 282°
2026-04-22 07:39 54.25023 16.87648 22820 ft 420 kts 296°
2026-04-22 07:40 54.26379 16.83286 23174 ft 413 kts 309°
2026-04-22 07:40 54.28074 16.79395 23545 ft 413 kts 313°
2026-04-22 07:40 54.29886 16.75491 23882 ft 415 kts 314°
2026-04-22 07:40 54.31680 16.71607 24223 ft 418 kts 313°
2026-04-22 07:41 54.33448 16.67636 24565 ft 420 kts 312°
2026-04-22 07:41 54.35188 16.63595 24893 ft 423 kts 311°
2026-04-22 07:41 54.36924 16.59513 25207 ft 425 kts 311°
2026-04-22 07:41 54.38655 16.55473 25509 ft 427 kts 311°
2026-04-22 07:42 54.40430 16.51375 25844 ft 429 kts 312°
2026-04-22 07:42 54.42219 16.47271 26174 ft 430 kts 312°
2026-04-22 07:42 54.44011 16.43147 26540 ft 431 kts 311°
2026-04-22 07:42 54.45793 16.39015 26976 ft 430 kts 311°
2026-04-22 07:43 54.47569 16.34873 27362 ft 430 kts 311°
2026-04-22 07:43 54.49339 16.30737 27775 ft 429 kts 311°
2026-04-22 07:43 54.51112 16.26599 28150 ft 429 kts 311°
2026-04-22 07:43 54.52881 16.22478 28548 ft 428 kts 311°
2026-04-22 07:44 54.54645 16.18357 28946 ft 427 kts 311°
2026-04-22 07:44 54.56399 16.14248 29329 ft 426 kts 311°
2026-04-22 07:44 54.58154 16.10127 29625 ft 426 kts 311°
2026-04-22 07:44 54.59906 16.06004 29871 ft 425 kts 311°
2026-04-22 07:45 54.61648 16.01896 30123 ft 424 kts 311°
2026-04-22 07:45 54.63391 15.97778 30310 ft 425 kts 311°
2026-04-22 07:45 54.66851 15.89611 30294 ft 423 kts 311°
2026-04-22 07:46 54.70321 15.81388 30297 ft 424 kts 311°
2026-04-22 07:46 54.73781 15.73137 30298 ft 424 kts 311°
2026-04-22 07:47 54.77209 15.64859 30298 ft 423 kts 311°
2026-04-22 07:47 54.80623 15.56550 30308 ft 423 kts 311°
2026-04-22 07:48 54.84043 15.48245 30317 ft 423 kts 311°
2026-04-22 07:48 54.87453 15.39926 30333 ft 422 kts 311°
2026-04-22 07:49 54.90850 15.31601 30327 ft 422 kts 310°
2026-04-22 07:49 54.92368 15.27227 30174 ft 423 kts 303°
2026-04-22 07:49 54.93693 15.22662 29658 ft 422 kts 302°
2026-04-22 07:50 54.94956 15.18044 28835 ft 426 kts 301°
2026-04-22 07:50 54.96224 15.13332 27816 ft 434 kts 301°
2026-04-22 07:50 54.97521 15.08570 27020 ft 435 kts 301°
2026-04-22 07:50 54.98833 15.03827 26328 ft 433 kts 302°
2026-04-22 07:51 55.00147 14.99119 25664 ft 431 kts 302°
2026-04-22 07:51 55.01447 14.94440 25046 ft 427 kts 302°
2026-04-22 07:51 55.02732 14.89787 24436 ft 424 kts 301°
2026-04-22 07:51 55.04001 14.85174 23832 ft 421 kts 301°
2026-04-22 07:52 55.05261 14.80589 23238 ft 417 kts 301°
2026-04-22 07:52 55.06511 14.76052 22649 ft 413 kts 302°
2026-04-22 07:52 55.07800 14.71602 22065 ft 409 kts 302°
2026-04-22 07:52 55.09092 14.67211 21490 ft 405 kts 303°
2026-04-22 07:53 55.10359 14.62925 20917 ft 401 kts 303°
2026-04-22 07:53 55.11648 14.58559 20324 ft 397 kts 302°
2026-04-22 07:53 55.12885 14.54334 19745 ft 394 kts 302°
2026-04-22 07:53 55.14124 14.50088 19169 ft 390 kts 302°
2026-04-22 07:54 55.15347 14.45879 18588 ft 387 kts 302°
2026-04-22 07:54 55.16560 14.41707 18013 ft 383 kts 302°
2026-04-22 07:54 55.17763 14.37573 17427 ft 380 kts 302°
2026-04-22 07:54 55.18954 14.33479 16836 ft 376 kts 301°
2026-04-22 07:55 55.20134 14.29414 16244 ft 373 kts 301°
2026-04-22 07:55 55.21303 14.25364 15655 ft 370 kts 301°
2026-04-22 07:55 55.22424 14.21328 15065 ft 368 kts 297°
2026-04-22 07:55 55.23400 14.17194 14476 ft 366 kts 295°
2026-04-22 07:56 55.24314 14.13047 13893 ft 363 kts 294°
2026-04-22 07:56 55.25207 14.08933 13314 ft 360 kts 295°
2026-04-22 07:56 55.26107 14.04863 12732 ft 357 kts 295°
2026-04-22 07:56 55.27016 14.00826 12152 ft 354 kts 295°
2026-04-22 07:57 55.27924 13.96834 11567 ft 351 kts 294°
2026-04-22 07:57 55.28820 13.92867 10975 ft 349 kts 294°
2026-04-22 07:57 55.29408 13.90251 10587 ft 347 kts 294°
2026-04-22 07:57 55.30285 13.86319 10006 ft 345 kts 294°
2026-04-22 07:58 55.31152 13.82416 9428 ft 342 kts 294°
2026-04-22 07:58 55.32015 13.78541 8850 ft 340 kts 294°
2026-04-22 07:58 55.32872 13.74688 8287 ft 337 kts 294°
2026-04-22 07:58 55.33717 13.70875 7744 ft 333 kts 294°
2026-04-22 07:59 55.34552 13.67102 7202 ft 330 kts 293°
2026-04-22 07:59 55.35378 13.63362 6667 ft 327 kts 293°
2026-04-22 07:59 55.36199 13.59648 6263 ft 325 kts 293°
2026-04-22 07:59 55.37012 13.55958 6067 ft 323 kts 293°
2026-04-22 08:00 55.37823 13.52270 5942 ft 323 kts 293°
2026-04-22 08:00 55.38631 13.48591 5817 ft 322 kts 293°
2026-04-22 08:00 55.39435 13.44920 5692 ft 321 kts 293°
2026-04-22 08:00 55.40235 13.41259 5566 ft 318 kts 293°
2026-04-22 08:01 55.41007 13.37715 5435 ft 302 kts 293°
2026-04-22 08:01 55.41739 13.34343 5307 ft 288 kts 293°
2026-04-22 08:01 55.42440 13.31132 5179 ft 275 kts 294°
2026-04-22 08:01 55.43119 13.28050 5050 ft 265 kts 294°
2026-04-22 08:02 55.43783 13.25040 4976 ft 263 kts 294°
2026-04-22 08:02 55.44439 13.22023 4958 ft 264 kts 294°
2026-04-22 08:02 55.45085 13.19003 4840 ft 263 kts 294°
2026-04-22 08:02 55.45727 13.16003 4630 ft 258 kts 294°
2026-04-22 08:03 55.46356 13.13087 4424 ft 251 kts 294°
2026-04-22 08:03 55.46968 13.10262 4230 ft 243 kts 294°
2026-04-22 08:03 55.47556 13.07531 4075 ft 234 kts 294°
2026-04-22 08:03 55.48123 13.04895 3924 ft 227 kts 294°
2026-04-22 08:04 55.48665 13.02286 3776 ft 227 kts 291°
2026-04-22 08:04 55.49184 12.99705 3621 ft 224 kts 300°
2026-04-22 08:04 55.49971 12.97356 3476 ft 219 kts 306°
2026-04-22 08:04 55.50803 12.95154 3323 ft 213 kts 307°
2026-04-22 08:05 55.51627 12.93001 3170 ft 208 kts 307°
2026-04-22 08:05 55.52400 12.90908 3022 ft 198 kts 306°
2026-04-22 08:05 55.53132 12.88911 2899 ft 191 kts 307°
2026-04-22 08:05 55.53847 12.87003 2744 ft 182 kts 307°
2026-04-22 08:06 55.54534 12.85164 2487 ft 175 kts 307°
2026-04-22 08:06 55.55174 12.83430 2258 ft 161 kts 307°
2026-04-22 08:06 55.55761 12.81851 2068 ft 148 kts 307°
2026-04-22 08:06 55.56302 12.80396 1865 ft 137 kts 307°
2026-04-22 08:07 55.56822 12.78999 1692 ft 136 kts 307°
2026-04-22 08:07 55.57339 12.77609 1509 ft 135 kts 307°
2026-04-22 08:07 55.57855 12.76222 1329 ft 135 kts 306°
2026-04-22 08:07 55.58367 12.74837 1148 ft 134 kts 306°
2026-04-22 08:08 55.58879 12.73457 968 ft 134 kts 306°
2026-04-22 08:08 55.59388 12.72083 790 ft 134 kts 306°
2026-04-22 08:08 55.59897 12.70710 613 ft 133 kts 306°
2026-04-22 08:08 55.60404 12.69341 435 ft 133 kts 306°
2026-04-22 08:09 55.60910 12.67974 245 ft 133 kts 305°
2026-04-22 08:09 55.61414 12.66612 60 ft 132 kts 306°
2026-04-22 08:09 55.61883 12.65357 32 ft 95 kts 304°
2026-04-22 08:09 55.62129 12.64697 32 ft 42 kts 302°
2026-04-22 08:10 55.62250 12.64453 31 ft 22 kts 335°
2026-04-22 08:10 55.62363 12.64432 32 ft 9 kts 14°
2026-04-22 08:10 55.62391 12.64449 32 ft 1 kts 19°
2026-04-22 08:10 55.62409 12.64460 32 ft 5 kts 18°
2026-04-22 08:11 55.62452 12.64479 32 ft 8 kts 14°
2026-04-22 08:11 55.62469 12.64556 32 ft 9 kts 105°
2026-04-22 08:11 55.62429 12.64666 32 ft 13 kts 124°
2026-04-22 08:11 55.62374 12.64816 31 ft 16 kts 122°
2026-04-22 08:12 55.62314 12.64980 31 ft 16 kts 123°
2026-04-22 08:12 55.62277 12.65112 32 ft 12 kts 89°
2026-04-22 08:12 55.62293 12.65251 32 ft 12 kts 84°
2026-04-22 08:12 55.62351 12.65330 32 ft 13 kts 357°
2026-04-22 08:13 55.62433 12.65355 32 ft 12 kts 56°
2026-04-22 08:13 55.62445 12.65522 31 ft 16 kts 87°
2026-04-22 08:13 55.62446 12.65705 32 ft 12 kts 87°
2026-04-22 08:13 55.62467 12.65762 32 ft 6 kts
2026-04-22 08:14 55.62505 12.65761 32 ft 5 kts 357°
2026-04-22 08:14 55.62524 12.65760 32 ft 0 kts 358°